TimeCDT,TemperatureF,Dew PointF,Humidity,Sea Level PressureIn,VisibilityMPH,Wind Direction,Wind SpeedMPH,Gust SpeedMPH,PrecipitationIn,Events,Conditions,WindDirDegrees,DateUTC
12:53 AM,64.9,60.1,84,30.01,10.0,SE,3.5,-,N/A,,Partly Cloudy,130,2012-10-03 05:53:00
1:53 AM,64.9,60.1,84,30.00,10.0,SE,5.8,-,N/A,,Clear,130,2012-10-03 06:53:00
2:53 AM,66.0,60.1,81,30.00,10.0,ESE,3.5,-,N/A,,Clear,120,2012-10-03 07:53:00
3:53 AM,66.0,61.0,84,29.99,9.0,ESE,3.5,-,N/A,,Clear,120,2012-10-03 08:53:00
4:53 AM,63.0,60.1,90,30.01,8.0,Calm,Calm,-,N/A,,Partly Cloudy,0,2012-10-03 09:53:00
5:53 AM,64.9,61.0,87,30.01,8.0,Calm,Calm,-,N/A,,Partly Cloudy,0,2012-10-03 10:53:00
6:53 AM,68.0,62.1,81,30.03,9.0,East,5.8,-,N/A,,Scattered Clouds,100,2012-10-03 11:53:00
7:53 AM,69.1,62.1,78,30.05,8.0,East,5.8,-,N/A,,Scattered Clouds,100,2012-10-03 12:53:00
8:53 AM,73.9,64.0,71,30.06,10.0,ESE,9.2,-,N/A,,Scattered Clouds,110,2012-10-03 13:53:00
9:53 AM,77.0,62.1,60,30.08,10.0,ESE,11.5,-,N/A,,Scattered Clouds,110,2012-10-03 14:53:00
10:53 AM,80.1,63.0,56,30.09,10.0,SSE,11.5,-,N/A,,Scattered Clouds,150,2012-10-03 15:53:00
11:53 AM,81.0,62.1,52,30.08,10.0,South,11.5,-,N/A,,Scattered Clouds,170,2012-10-03 16:53:00
12:53 PM,82.9,62.1,49,30.07,10.0,South,11.5,-,N/A,,Scattered Clouds,170,2012-10-03 17:53:00
1:53 PM,82.9,64.9,54,30.05,10.0,South,10.4,18.4,N/A,,Mostly Cloudy,180,2012-10-03 18:53:00
2:53 PM,84.0,64.9,53,30.04,10.0,SSE,10.4,26.5,N/A,,Scattered Clouds,150,2012-10-03 19:53:00
3:53 PM,84.0,63.0,49,30.04,10.0,SSE,12.7,21.9,N/A,,Scattered Clouds,150,2012-10-03 20:53:00
4:53 PM,81.0,64.9,58,30.05,10.0,SE,11.5,-,N/A,,Scattered Clouds,140,2012-10-03 21:53:00
5:53 PM,79.0,64.0,60,30.06,10.0,SSE,11.5,-,N/A,,Mostly Cloudy,160,2012-10-03 22:53:00
6:53 PM,77.0,64.0,64,30.08,10.0,SE,6.9,-,N/A,,Scattered Clouds,130,2012-10-03 23:53:00
7:53 PM,75.9,64.0,67,30.09,10.0,ESE,6.9,-,N/A,,Scattered Clouds,120,2012-10-04 00:53:00
8:53 PM,75.0,64.9,71,30.11,10.0,East,5.8,-,N/A,,Partly Cloudy,100,2012-10-04 01:53:00
9:53 PM,73.9,64.9,73,30.12,10.0,ESE,4.6,-,N/A,,Clear,120,2012-10-04 02:53:00
10:53 PM,73.0,64.9,76,30.13,10.0,ESE,4.6,-,N/A,,Clear,120,2012-10-04 03:53:00